• în România
  • Lista ţărilor
  • Pe 7 zile
  • Temperatura apei
  • Hartă satelitară
  • Meteo pe hartă
  • Widget-uri
  • user-avatar
    Intrare

    Meteo pe oră la Mons

    Astăzi, 19 Iunie, Marţi

    Timp Temperatura Precipitaţii Vânt Presiune Umiditate
    00:00 +14°C° 0 mm 3 m/s 764 mmHg 96%
    01:00 +14°C° 0 mm 3 m/s 764 mmHg 95%
    02:00 +14°C° 0 mm 3 m/s 764 mmHg 95%
    03:00 +15°C° 0 mm 4 m/s 764 mmHg 95%
    04:00 +15°C° 0 mm 4 m/s 765 mmHg 94%
    05:00 +17°C° 0 mm 4 m/s 765 mmHg 93%
    06:00 +17°C° 0 mm 4 m/s 765 mmHg 92%
    07:00 +18°C° 0 mm 3 m/s 765 mmHg 91%
    08:00 +18°C° 0 mm 3 m/s 765 mmHg 90%
    09:00 +18°C° 0 mm 3 m/s 765 mmHg 90%
    10:00 +19°C° 0 mm 3 m/s 766 mmHg 88%
    11:00 +19°C° 0 mm 3 m/s 766 mmHg 87%
    12:00 +20°C° 0 mm 2 m/s 766 mmHg 86%
    13:00 +20°C° 0 mm 2 m/s 766 mmHg 85%
    14:00 +20°C° 0 mm 3 m/s 766 mmHg 83%
    15:00 +21°C° 0 mm 3 m/s 765 mmHg 82%
    16:00 +21°C° 0 mm 2 m/s 765 mmHg 83%
    17:00 +21°C° 0 mm 2 m/s 765 mmHg 85%
    18:00 +20°C° 0 mm 2 m/s 765 mmHg 87%
    19:00 +20°C° 0 mm 2 m/s 765 mmHg 88%
    20:00 +19°C° 0 mm 2 m/s 765 mmHg 90%
    21:00 +19°C° 0 mm 1 m/s 765 mmHg 92%
    22:00 +19°C° 0 mm 1 m/s 765 mmHg 93%
    23:00 +18°C° 0 mm 1 m/s 765 mmHg 94%

    Mâine, 20 Iunie, Miercuri

    Timp Temperatura Precipitaţii Vânt Presiune Umiditate
    00:00 +16°C° 0 mm 1 m/s 765 mmHg 94%
    01:00 +16°C° 0 mm 1 m/s 765 mmHg 95%
    02:00 +15°C° 0 mm 1 m/s 765 mmHg 95%
    03:00 +15°C° 0 mm 1 m/s 764 mmHg 95%
    04:00 +16°C° 0 mm 1 m/s 764 mmHg 94%
    05:00 +18°C° 0 mm 1 m/s 764 mmHg 92%
    06:00 +18°C° 0 mm 2 m/s 764 mmHg 90%
    07:00 +19°C° 0 mm 2 m/s 764 mmHg 85%
    08:00 +21°C° 0 mm 2 m/s 764 mmHg 80%
    09:00 +23°C° 0 mm 2 m/s 764 mmHg 75%
    10:00 +22°C° 0 mm 3 m/s 764 mmHg 75%
    11:00 +24°C° 0 mm 3 m/s 764 mmHg 75%
    12:00 +24°C° 0 mm 3 m/s 764 mmHg 74%
    13:00 +24°C° 0 mm 3 m/s 763 mmHg 73%
    14:00 +25°C° 0 mm 3 m/s 763 mmHg 72%
    15:00 +25°C° 0 mm 3 m/s 763 mmHg 71%
    16:00 +25°C° 0 mm 3 m/s 762 mmHg 73%
    17:00 +24°C° 0 mm 2 m/s 762 mmHg 75%
    18:00 +24°C° 0 mm 2 m/s 762 mmHg 77%
    19:00 +21°C° 0 mm 2 m/s 762 mmHg 82%
    20:00 +20°C° 0 mm 2 m/s 762 mmHg 87%
    21:00 +18°C° 0 mm 2 m/s 762 mmHg 91%
    22:00 +17°C° 0 mm 2 m/s 762 mmHg 92%
    23:00 +17°C° 0 mm 2 m/s 762 mmHg 93%

    Poimâine, 21 Iunie, Joi

    Timp Temperatura Precipitaţii Vânt Presiune Umiditate
    00:00 +16°C° 0 mm 2 m/s 762 mmHg 94%
    01:00 +16°C° 0 mm 3 m/s 762 mmHg 95%
    02:00 +14°C° 0 mm 3 m/s 761 mmHg 95%
    03:00 +14°C° 0 mm 3 m/s 761 mmHg 95%
    04:00 +14°C° 0 mm 4 m/s 761 mmHg 93%
    05:00 +15°C° 0 mm 4 m/s 761 mmHg 91%
    06:00 +15°C° 0 mm 5 m/s 762 mmHg 88%
    07:00 +15°C° 0 mm 5 m/s 762 mmHg 83%
    08:00 +15°C° 0 mm 6 m/s 762 mmHg 77%
    09:00 +16°C° 0 mm 6 m/s 763 mmHg 71%
    10:00 +16°C° 0 mm 6 m/s 763 mmHg 67%
    11:00 +17°C° 0 mm 7 m/s 764 mmHg 62%
    12:00 +17°C° 0 mm 7 m/s 764 mmHg 57%
    13:00 +17°C° 0 mm 7 m/s 764 mmHg 57%
    14:00 +16°C° 0 mm 7 m/s 764 mmHg 57%
    15:00 +16°C° 0 mm 7 m/s 765 mmHg 57%
    16:00 +15°C° 0 mm 6 m/s 765 mmHg 60%
    17:00 +15°C° 0 mm 6 m/s 765 mmHg 64%
    18:00 +14°C° 0 mm 5 m/s 766 mmHg 68%
    19:00 +12°C° 0 mm 4 m/s 766 mmHg 72%
    20:00 +11°C° 0 mm 4 m/s 767 mmHg 77%
    21:00 +10°C° 0 mm 3 m/s 767 mmHg 81%
    22:00 +9°C° 0 mm 2 m/s 767 mmHg 82%
    23:00 +9°C° 0 mm 2 m/s 767 mmHg 82%

    22 Iunie, Vineri

    Timp Temperatura Precipitaţii Vânt Presiune Umiditate
    00:00 +8°C° 0 mm 2 m/s 768 mmHg 83%
    01:00 +8°C° 0 mm 2 m/s 767 mmHg 83%
    02:00 +8°C° 0 mm 2 m/s 767 mmHg 82%
    03:00 +8°C° 0 mm 2 m/s 767 mmHg 81%
    04:00 +9°C° 0 mm 3 m/s 767 mmHg 79%
    05:00 +10°C° 0 mm 3 m/s 767 mmHg 78%
    06:00 +12°C° 0 mm 4 m/s 768 mmHg 76%
    07:00 +13°C° 0 mm 4 m/s 768 mmHg 74%
    08:00 +14°C° 0 mm 5 m/s 768 mmHg 71%
    09:00 +15°C° 0 mm 5 m/s 768 mmHg 69%
    10:00 +15°C° 0 mm 5 m/s 768 mmHg 68%
    11:00 +15°C° 0 mm 5 m/s 768 mmHg 68%
    12:00 +15°C° 0 mm 5 m/s 768 mmHg 68%
    13:00 +15°C° 0 mm 5 m/s 768 mmHg 68%
    14:00 +15°C° 0 mm 5 m/s 768 mmHg 69%
    15:00 +15°C° 0 mm 5 m/s 767 mmHg 69%
    16:00 +15°C° 0 mm 5 m/s 767 mmHg 71%
    17:00 +14°C° 0 mm 5 m/s 767 mmHg 73%
    18:00 +14°C° 0 mm 5 m/s 767 mmHg 75%
    19:00 +13°C° 0 mm 4 m/s 768 mmHg 79%
    20:00 +12°C° 0 mm 3 m/s 768 mmHg 83%
    21:00 +10°C° 0 mm 3 m/s 768 mmHg 88%
    22:00 +10°C° 0 mm 3 m/s 768 mmHg 89%
    23:00 +9°C° 0 mm 2 m/s 768 mmHg 90%

    23 Iunie, Sâmbătă

    Timp Temperatura Precipitaţii Vânt Presiune Umiditate
    00:00 +9°C° 0 mm 2 m/s 768 mmHg 92%
    01:00 +8°C° 0 mm 2 m/s 768 mmHg 92%
    02:00 +8°C° 0 mm 2 m/s 768 mmHg 93%
    03:00 +8°C° 0 mm 2 m/s 768 mmHg 93%
    04:00 +9°C° 0 mm 2 m/s 768 mmHg 90%
    05:00 +10°C° 0 mm 2 m/s 768 mmHg 88%
    06:00 +12°C° 0 mm 2 m/s 768 mmHg 85%
    07:00 +14°C° 0 mm 2 m/s 768 mmHg 79%
    08:00 +15°C° 0 mm 2 m/s 768 mmHg 73%
    09:00 +16°C° 0 mm 3 m/s 768 mmHg 67%
    10:00 +17°C° 0 mm 3 m/s 768 mmHg 67%
    11:00 +18°C° 0 mm 3 m/s 767 mmHg 66%
    12:00 +18°C° 0 mm 4 m/s 767 mmHg 66%
    13:00 +19°C° 0 mm 4 m/s 767 mmHg 65%
    14:00 +19°C° 0 mm 4 m/s 767 mmHg 64%
    15:00 +20°C° 0 mm 4 m/s 766 mmHg 63%
    16:00 +19°C° 0 mm 4 m/s 766 mmHg 65%
    17:00 +19°C° 0 mm 3 m/s 766 mmHg 68%
    18:00 +18°C° 0 mm 3 m/s 766 mmHg 71%
    19:00 +17°C° 0 mm 3 m/s 766 mmHg 75%
    20:00 +15°C° 0 mm 2 m/s 766 mmHg 79%
    21:00 +13°C° 0 mm 2 m/s 766 mmHg 83%
    22:00 +13°C° 0 mm 2 m/s 766 mmHg 84%
    23:00 +12°C° 0 mm 2 m/s 766 mmHg 86%

    24 Iunie, Duminică

    Timp Temperatura Precipitaţii Vânt Presiune Umiditate
    00:00 +11°C° 0 mm 1 m/s 766 mmHg 88%
    01:00 +11°C° 0 mm 1 m/s 766 mmHg 89%
    02:00 +11°C° 0 mm 1 m/s 766 mmHg 90%
    03:00 +10°C° 0 mm 1 m/s 766 mmHg 91%
    04:00 +11°C° 0 mm 1 m/s 766 mmHg 88%
    05:00 +12°C° 0 mm 1 m/s 766 mmHg 85%
    06:00 +13°C° 0 mm 1 m/s 766 mmHg 83%
    07:00 +15°C° 0 mm 2 m/s 766 mmHg 77%
    08:00 +16°C° 0 mm 2 m/s 766 mmHg 71%
    09:00 +18°C° 0 mm 2 m/s 766 mmHg 65%
    10:00 +19°C° 0 mm 2 m/s 766 mmHg 62%
    11:00 +20°C° 0 mm 2 m/s 765 mmHg 59%
    12:00 +21°C° 0 mm 2 m/s 765 mmHg 56%
    13:00 +21°C° 0 mm 3 m/s 765 mmHg 56%
    14:00 +21°C° 0 mm 3 m/s 765 mmHg 56%
    15:00 +22°C° 0 mm 3 m/s 765 mmHg 56%
    16:00 +21°C° 0 mm 3 m/s 765 mmHg 60%
    17:00 +21°C° 0 mm 3 m/s 765 mmHg 65%
    18:00 +20°C° 0 mm 3 m/s 764 mmHg 69%
    19:00 +18°C° 0 mm 3 m/s 765 mmHg 73%
    20:00 +17°C° 0 mm 3 m/s 765 mmHg 77%
    21:00 +14°C° 0 mm 3 m/s 765 mmHg 81%
    22:00 +14°C° 0 mm 2 m/s 765 mmHg 83%
    23:00 +14°C° 0 mm 2 m/s 765 mmHg 84%
    Arată mai mult